Flag for Canada Weather past 2 weeks in Chatham-Kent, Ontario, Canada

Now
46 °F

Cool.


Feels Like: 41 °F
Forecast: 44 / 54 °F
Wind: 10 mph from North

Location: Erieau

Current Time: Oct 22, 2014 at 2:53:06 AM

Latest Report: Oct 22, 2014 at 2:00 AM


Visibility: N/A

Pressure: 30.16 "Hg

Humidity: 82%

Dew point: 41 °F

Location of Chatham-KentLocation

Historic Weather in Chatham-Kent — Graph

°F

Chatham-Kent temperature yesterday

Maximum temperature yesterday: 53 °F (at 12:00 AM)
Minimum temperature yesterday: 46 °F (at 7:00 PM)
Average temperature yesterday: 49 °F

Past Weeks' High & Low Weather Summary

 TemperatureHumidityPressure
High66 °F (Oct 14, 11:00 AM)100% (Oct 16, 5:00 AM)30.24 "Hg (Oct 16, 5:00 AM)
Low38 °F (Oct 19, 8:00 AM)37% (Oct 8, 2:00 PM)29.51 "Hg (Oct 17, 3:00 PM)
Average54 °F76%29.91 "Hg
* Reported Oct 7 1:00 AM — Oct 22 1:00 AM, Chatham-Kent, Weather by CustomWeather, © 2014

Note: Actual official high and low records may vary slightly from our data, if they occured in-between our weather recording intervals... More about our weather records

Advertising

Chatham-Kent weather history for previous 24 hours

 ConditionsComfort  
Time TempWeatherWind HumidityBarometerVisibility
1:00 AM
Oct 22
46 °FCool.12 mph82%30.16 "HgN/A
12:00 AM46 °FCool.12 mph82%30.16 "HgN/A
11:00 PM
Oct 21
46 °FCool.13 mph81%30.15 "HgN/A
10:00 PM46 °FCool.15 mph82%30.14 "HgN/A
9:00 PM47 °FCool.15 mph79%30.11 "HgN/A
8:00 PM47 °FCool.15 mph80%30.09 "HgN/A
7:00 PM46 °FCool.14 mph86%30.06 "HgN/A
6:00 PM47 °FCool.12 mph81%30.04 "HgN/A
5:00 PM48 °FCool.8 mph81%30.01 "HgN/A
4:00 PM48 °FCool.7 mph81%29.99 "HgN/A
3:00 PM48 °FCool.8 mph81%29.98 "HgN/A
2:00 PM48 °FCool.6 mph84%29.97 "HgN/A
1:00 PM47 °FCool.5 mph82%29.96 "HgN/A
12:00 PM48 °FCool.6 mph84%29.96 "HgN/A
11:00 AM49 °FCool.6 mph81%29.94 "HgN/A
10:00 AM48 °FCool.5 mph87%29.93 "HgN/A
9:00 AM48 °FCool.5 mph91%29.91 "HgN/A
8:00 AM48 °FCool.5 mph91%29.89 "HgN/A
7:00 AM49 °FCool.5 mph88%29.88 "HgN/A
6:00 AM49 °FCool.3 mph89%29.86 "HgN/A
5:00 AM49 °FCool.3 mph88%29.85 "HgN/A
4:00 AM50 °FCool.3 mph88%29.84 "HgN/A
3:00 AM51 °FCool.3 mph90%29.84 "HgN/A
2:00 AM52 °FCool.2 mph89%29.83 "HgN/A
Weather by CustomWeather, © 2014

See weather overviewHow to use our weather pages